Location: Newark
(46.2358°N, 112.1211°W)
Time: 10:34:10
(UTC+00:00)

DELFI C3 - Visible Passes

Search period start: 03 July 2020 00:00
Search period end: 13 July 2020 00:00
Orbit: 536 x 550 km, 97.4° (Epoch: 02 July)

Date Brightness Start Highest point End Pass type
(mag) Time Alt. Az. Time Alt. Az. Time Alt. Az.
04 Jul ? 04:47:25 10° W 04:47:37 10° W 04:47:48 10° W visible
05 Jul ? 04:39:33 10° WSW 04:41:05 12° W 04:42:38 10° WNW visible
06 Jul ? 04:32:26 10° WSW 04:34:34 14° W 04:36:42 10° WNW visible
07 Jul ? 04:25:30 10° SW 04:28:02 16° W 04:30:35 10° NW visible
08 Jul ? 04:18:40 10° SW 04:21:31 19° W 04:24:24 10° NW visible
09 Jul ? 04:11:54 10° SW 04:15:01 22° W 04:18:09 10° NW visible
10 Jul ? 04:05:11 10° SSW 04:08:30 26° W 04:11:51 10° NW visible
11 Jul ? 03:58:30 10° SSW 04:02:00 30° W 04:05:32 10° NNW visible
12 Jul ? 03:51:52 10° SSW 03:55:30 35° W 03:59:10 10° NNW visible
